EW3665 Weather Reports


time (UTC)temp
C
wind
direction
speed
KPH
gust
KPH
rain 1hr
cm
rain 24hr
cm
rain mn
cm
humidity
%
barometer
mb
20260505041550 25 116 3.2 16.1 0.00 0.00 0.00 81 1010.6
20260505040037 25 63 4.8 19.3 0.00 0.00 0.00 81 1010.6
20260505034542 25 294 6.4 16.1 0.00 0.00 0.00 80 1010.6
20260505033033 26 113 4.8 12.9 0.00 0.00 0.00 80 1010.8
20260505031538 26 99 6.4 14.5 0.00 0.00 0.00 79 1010.9
20260505030028 26 61 4.8 16.1 0.00 0.00 0.00 78 1010.9
20260505024527 26 116 3.2 12.9 0.00 0.00 0.00 78 1010.9
20260505023025 27 118 4.8 17.7 0.00 0.00 0.00 77 1010.8
20260505021527 27 164 4.8 17.7 0.00 0.00 0.00 76 1010.7
20260505020012 27 135 6.4 20.9 0.00 0.00 0.00 75 1010.5
20260505014511 27 53 3.2 12.9 0.00 0.00 0.00 74 1010.5
20260505013010 27 107 4.8 14.5 0.00 0.00 0.00 73 1010.3
20260505011510 27 93 3.2 14.5 0.00 0.00 0.00 72 1010.0
20260505010016 28 16 4.8 14.5 0.00 0.00 0.00 71 1009.7
20260505004507 28 29 4.8 11.3 0.00 0.00 0.00 70 1009.6
20260505003009 28 117 3.2 19.3 0.00 0.00 0.00 69 1009.4
20260505001505 28 46 4.8 16.1 0.00 0.00 0.00 68 1009.2
20260505000051 28 69 6.4 14.5 0.00 0.00 0.00 68 1008.9
20260504234550 29 26 0.0 8.0 0.00 0.00 0.00 66 1008.7
20260504233048 29 127 3.2 11.3 0.00 0.00 0.00 65 1008.5
20260504231548 30 69 4.8 12.9 0.00 0.00 0.00 65 1008.3
20260504230048 30 82 1.6 14.5 0.00 0.00 0.00 64 1008.3
20260504224544 30 37 6.4 16.1 0.00 0.00 0.00 62 1008.2
20260504223050 -17 0.0 0.0 0.00 0.00 0.00 1008.1
20260504221551 -17 0.0 0.0 0.00 0.00 0.00 1007.6
20260504220023 -17 0.0 0.0 0.00 0.00 0.00 1007.5
20260504214618 -17 0.0 0.0 0.00 0.00 0.00 1007.1
20260504213012 -17 0.0 0.0 0.00 0.00 0.00 1006.9
20260504211507 -17 0.0 0.0 0.00 0.00 0.00 1006.9
20260504210003 -17 0.0 0.0 0.00 0.00 0.00 1006.9
20260504204606 -17 0.0 0.0 0.00 0.00 0.00 1006.8
20260504203055 -17 0.0 0.0 0.00 0.00 0.00 1006.9
20260504201552 -17 0.0 0.0 0.00 0.00 0.00 1007.0
20260504200035 -17 0.0 0.0 0.00 0.00 0.00 1007.0
20260504194539 -17 0.0 0.0 0.00 0.00 0.00 1007.1
20260504193026 -17 0.0 0.0 0.00 0.00 0.00 1007.4
20260504191534 -17 0.0 0.0 0.00 0.00 0.00 1007.4
20260504190017 -17 0.0 0.0 0.00 0.00 0.00 1007.6
20260504184517 -17 0.0 0.0 0.00 0.00 0.00 1007.9
20260504183009 -17 0.0 0.0 0.00 0.00 0.00 1008.0
20260504181512 -17 0.0 0.0 0.00 0.00 0.00 1008.2
20260504180048 -17 0.0 0.0 0.00 0.00 0.00 1008.4
20260504174543 -17 0.0 0.0 0.00 0.00 0.00 1008.6
20260504173117 -17 0.0 0.0 0.00 0.00 0.00 1009.1
20260504171512 -17 0.0 0.0 0.00 0.00 0.00 1009.4
20260504081552 23 63 1.6 6.4 0.00 0.00 0.00 85 1009.3
20260504080109 23 48 0.0 3.2 0.00 0.00 0.00 86 1009.3